Location: Muenchen
(48.1800°N, 11.5800°E)
Time: 02:22:39
(UTC+02:00)

Vanguard 2 Rocket - Visible Passes

Search period start: 25 April 2015 00:00
Search period end: 05 May 2015 00:00
Orbit: 555 x 3332 km, 32.9° (Epoch: 24 April)

Date Brightness Start Highest point End Pass type
(mag) Time Alt. Az. Time Alt. Az. Time Alt. Az.
25 Apr 9.7 01:27:30 10° W 01:44:48 37° SSW 01:44:48 37° SSW visible
25 Apr 10.5 03:49:18 10° WSW 03:50:36 11° WSW 03:50:36 11° WSW visible
25 Apr 9.7 22:10:58 10° WSW 22:27:56 50° S 22:42:47 19° ESE visible
26 Apr 9.6 00:26:35 10° W 00:44:33 43° SSW 00:48:35 39° S visible
26 Apr 10.2 02:45:41 10° W 02:54:23 21° WSW 02:54:23 21° WSW visible
26 Apr 9.8 21:11:45 10° SW 21:27:16 47° S 21:45:59 10° ESE visible
26 Apr 9.7 23:26:15 10° WSW 23:43:57 47° SSW 23:52:21 33° SSE visible
27 Apr 10.0 01:43:37 10° W 01:58:09 30° SW 01:58:09 30° SW visible
27 Apr 9.7 22:26:25 10° WSW 22:43:12 49° S 22:56:08 23° SE visible
28 Apr 9.8 00:42:27 10° W 00:59:34 37° SSW 01:01:56 36° SSW visible
28 Apr 10.5 03:03:34 10° W 03:07:44 14° WSW 03:07:44 14° WSW visible
28 Apr 9.7 21:27:07 10° WSW 21:42:31 49° S 21:59:56 13° ESE visible
28 Apr 9.8 23:41:58 10° W 23:59:05 42° SSW 00:05:44 34° SSE visible
29 Apr 10.2 02:00:20 10° W 02:11:32 23° SW 02:11:32 23° SW visible
29 Apr 9.7 20:28:15 10° SW 20:42:03 46° S 21:00:35 10° ESE visible
29 Apr 9.8 22:42:02 10° WSW 22:58:27 46° SSW 23:09:32 27° SE visible
30 Apr 10.0 00:58:40 10° W 01:14:28 30° SSW 01:15:21 30° SSW visible
30 Apr 9.7 21:42:38 10° WSW 21:57:47 48° S 22:13:22 17° SE visible
30 Apr 9.9 23:57:55 10° W 00:14:08 36° SSW 00:19:10 32° S visible
01 May 10.5 02:18:23 10° WSW 02:24:58 15° WSW 02:24:58 15° WSW visible
01 May 9.7 20:43:40 10° WSW 20:57:19 47° S 21:15:51 10° ESE visible
01 May 9.9 22:57:50 10° W 23:13:37 41° SSW 23:23:01 28° SSE visible
02 May 10.3 01:15:30 10° W 01:28:49 23° SW 01:28:49 23° SW visible
02 May 9.8 21:58:19 10° WSW 22:13:04 44° SSW 22:26:53 20° SE visible
03 May 10.1 00:14:13 10° W 00:29:07 29° SSW 00:32:42 27° SSW visible
03 May 9.7 20:59:16 10° WSW 21:12:38 46° S 21:30:47 10° ESE visible
03 May 10.0 23:13:52 10° W 23:28:45 34° SSW 23:36:36 26° S visible
04 May 10.5 01:33:50 10° WSW 01:42:25 15° SW 01:42:25 15° SW visible
04 May 9.9 22:14:11 10° W 22:28:19 39° SSW 22:40:32 20° SSE visible
